This is the latest recevied weather packets stored in our database for station/object DD3FC-1. If no packets are shown the sender has not sent any weather packets the latest 10 day(s).
| Time | Temp. | Humidity | Pressure | Rain* | Wind** | Luminosity | Snow |
|---|---|---|---|---|---|---|---|
| 1777650044 | 25° C | 22% | 1024.8 hPa | 0 mm | - | - | - |
| 1777649444 | 25.56° C | 22% | 1024.9 hPa | 0 mm | - | - | - |
| 1777648844 | 25.56° C | 22% | 1025.1 hPa | 0 mm | - | - | - |
| 1777648244 | 25.56° C | 22% | 1025.1 hPa | 0 mm | - | - | - |
| 1777647644 | 25.56° C | 21% | 1025.1 hPa | 0 mm | - | - | - |
| 1777647044 | 26.11° C | 22% | 1025.3 hPa | 0 mm | - | - | - |
| 1777646444 | 26.11° C | 21% | 1025.4 hPa | 0 mm | - | - | - |
| 1777645844 | 26.11° C | 22% | 1025.5 hPa | 0 mm | - | - | - |
| 1777645244 | 26.11° C | 22% | 1025.6 hPa | 0 mm | - | - | - |
| 1777644644 | 26.11° C | 21% | 1025.6 hPa | 0 mm | - | - | - |
| 1777644044 | 26.11° C | 21% | 1025.7 hPa | 0 mm | - | - | - |
| 1777643445 | 26.67° C | 20% | 1025.8 hPa | 0 mm | - | - | - |
| 1777642844 | 26.67° C | 19% | 1025.9 hPa | 0 mm | - | - | - |
| 1777642245 | 26.11° C | 20% | 1026 hPa | 0 mm | - | - | - |
| 1777641645 | 26.67° C | 20% | 1026.3 hPa | 0 mm | - | - | - |
| 1777641045 | 26.67° C | 20% | 1026.2 hPa | 0 mm | - | - | - |
| 1777640445 | 26.11° C | 20% | 1026.2 hPa | 0 mm | - | - | - |
| 1777639845 | 26.67° C | 20% | 1026.5 hPa | 0 mm | - | - | - |
| 1777639245 | 26.11° C | 21% | 1026.6 hPa | 0 mm | - | - | - |
| 1777638645 | 26.11° C | 20% | 1026.5 hPa | 0 mm | - | - | - |
| 1777638045 | 25.56° C | 20% | 1026.6 hPa | 0 mm | - | - | - |
| 1777637445 | 26.11° C | 20% | 1026.9 hPa | 0 mm | - | - | - |
| 1777636845 | 25.56° C | 21% | 1027.1 hPa | 0 mm | - | - | - |
| 1777636245 | 25.56° C | 20% | 1027.3 hPa | 0 mm | - | - | - |
| 1777635645 | 25° C | 21% | 1027.4 hPa | 0 mm | - | - | - |
* Rain latest hour (hover to see other rain measurements)
** Current wind speed in m/s (hover to see current wind gust speed)